Volver al catálogo

ARIANE 5 R/B

ActivoHEO
NORAD 43825·ROCKET BODY·🇫🇷 France

Lanzado Dec 4, 2018 desde Guiana Space Centre

Loading…

Próximos Pases (próximas 24 horas)

TLE

ActualizadoSource: Space-Track

Época: Sep 14, 2026, 09:53 UTC

1 43825U 18100C   26257.41181029  .00002991  00000-0  56702-3 0  9994
2 43825   4.1016 314.2599 6926134 308.1531   7.6776  2.74612236 71083

Sigue ARIANE 5 R/B en tiempo real con AllMySat

Download on the App Store